This is the latest recevied weather packets stored in our database for station/object KI4HRG. If no packets are shown the sender has not sent any weather packets the latest 10 day(s).
| Time | Temp. | Humidity | Pressure | Rain* | Wind** | Luminosity | Snow |
|---|---|---|---|---|---|---|---|
| 1777504287 | 25° C | 87% | 1009.7 hPa | 0 mm | - | 55 W/m² | - |
| 1777503983 | 25° C | 87% | 1009.9 hPa | 0 mm | - | 66 W/m² | - |
| 1777503680 | 25.56° C | 85% | 1009.7 hPa | 0 mm | - | 74 W/m² | - |
| 1777503376 | 25.56° C | 85% | 1010.2 hPa | 0 mm | - | 82 W/m² | - |
| 1777503072 | 25.56° C | 85% | 1010.6 hPa | 0 mm | - | 84 W/m² | - |
| 1777502770 | 25.56° C | 86% | 1010.5 hPa | 0 mm | - | 138 W/m² | - |
| 1777502467 | 25.56° C | 86% | 1010.6 hPa | 0 mm | - | 130 W/m² | - |
| 1777502164 | 25.56° C | 84% | 1010.1 hPa | 0 mm | - | 83 W/m² | - |
| 1777501862 | 25.56° C | 84% | 1010 hPa | 0 mm | - | 76 W/m² | - |
| 1777501558 | 25.56° C | 84% | 1010 hPa | 0 mm | - | 90 W/m² | - |
| 1777501255 | 25.56° C | 84% | 1010.3 hPa | 0 mm | - | 101 W/m² | - |
| 1777500953 | 26.11° C | 83% | 1010.1 hPa | 0 mm | - | 125 W/m² | - |
| 1777500650 | 26.11° C | 82% | 1010.3 hPa | 0 mm | - | 141 W/m² | - |
| 1777500347 | 26.11° C | 82% | 1010.6 hPa | 0 mm | - | 143 W/m² | - |
| 1777500043 | 25.56° C | 83% | 1010.5 hPa | 0 mm | - | 140 W/m² | - |
| 1777499739 | 25.56° C | 83% | 1010.9 hPa | 0 mm | - | 102 W/m² | - |
| 1777499436 | 25.56° C | 82% | 1010.7 hPa | 0 mm | - | 146 W/m² | - |
| 1777499135 | 26.11° C | 82% | 1011 hPa | 0 mm | - | 96 W/m² | - |
| 1777498831 | 26.11° C | 80% | 1010.9 hPa | 0 mm | - | 127 W/m² | - |
| 1777498528 | 26.11° C | 80% | 1010.8 hPa | 0 mm | - | 152 W/m² | - |
| 1777498224 | 26.67° C | 79% | 1010.7 hPa | 0 mm | - | 182 W/m² | - |
| 1777497923 | 26.11° C | 80% | 1010.6 hPa | 0 mm | - | 181 W/m² | - |
| 1777497618 | 26.67° C | 79% | 1010.6 hPa | 0 mm | - | 169 W/m² | - |
| 1777497315 | 27.22° C | 78% | 1010.8 hPa | 0 mm | - | 296 W/m² | - |
| 1777497010 | 27.22° C | 79% | 1010.8 hPa | 0 mm | - | 416 W/m² | - |
* Rain latest hour (hover to see other rain measurements)
** Current wind speed in m/s (hover to see current wind gust speed)